Station THRO1 - 9063085 - Toledo, OH Image indicating link to RSS feed of recent meteorological observations for station THRO1


Conditions at THRO1 as of
(9:18 pm EDT on 07/22/2024)
0118 GMT on 07/23/2024:
     

Click on the graph icon in the table below to see a time series plot of the last five days of that observation.

5-day plot - Wind Direction Wind Direction (WDIR):ESE ( 120 deg true )
5-day plot - Wind Speed Wind Speed (WSPD): 4.1 kts
5-day plot - Wind Gust Wind Gust (GST): 5.1 kts
5-day plot - Atmospheric Pressure Atmospheric Pressure (PRES):29.94 in
5-day plot - Air Temperature Air Temperature (ATMP): 75.7 °F
5-day plot - Dew Point Dew Point (DEWP): 66.0 °F
5-day plot - Wind Speed at 10 Meters Wind Speed at 10 meters (WSPD10M): 3.9 kts
5-day plot - Wind Speed at 20 Meters Wind Speed at 20 meters (WSPD20M): 3.9 kts
5-day plot -  Wind Speed, Wind Gust and Atmospheric Pressure Combined plot of Wind Speed, Gust, and Air Pressure
NOS Water Level Observation Network Water Level
Previous observations
TIME
(EDT)
5-day plot - Wind Direction
WDIR
 
5-day plot - Wind Speed
WSPD
kts
5-day plot - Wind Gust
GST
kts
5-day plot - Wave Height
WVHT
ft
5-day plot - Dominant Wave Period
DPD
sec
5-day plot - Average Wave Period
APD
sec
5-day plot - Mean Wave Direction
MWD
 
5-day plot - Atmospheric Pressure
PRES
in
5-day plot - Pressure Tendency
PTDY
in
5-day plot - Air Temperature
ATMP
°F
5-day plot - Water Temperature
WTMP
°F
5-day plot - Dew Point
DEWP
°F
5-day plot - Salinity
SAL
psu
5-day plot - Visibility
VIS
nmi
5-day plot - Tide (above MLLW)
TIDE
ft
2024-07-22 09:12 pmESE 5.1 6.0----29.94- 75.7- 66.0---
2024-07-22 09:06 pmESE 4.1 5.1----29.94- 75.7- 66.0---
2024-07-22 09:00 pmESE 2.9 4.1----29.94+0.00 75.7- 65.8---
2024-07-22 08:54 pm E 2.9 4.1----29.94- 74.3- 66.0---
2024-07-22 08:48 pmENE 1.0 4.1----29.94- 73.8- 65.8---
2024-07-22 08:42 pmENE 1.0 4.1----29.94- 73.9- 66.0---
2024-07-22 08:36 pmENE 1.9 4.1----29.94- 74.7- 65.3---
2024-07-22 08:30 pm E 1.9 4.1----29.94- 75.2- 65.1---
2024-07-22 08:24 pm E 1.9 4.1----29.94- 75.2- 65.1---
2024-07-22 08:18 pmENE 1.0 4.1----29.94- 76.1- 65.8---
2024-07-22 08:12 pmENE 1.0 5.1----29.94- 76.1- 64.4---
2024-07-22 08:06 pmENE 2.9 4.1----29.94- 76.1- 64.0---
2024-07-22 08:00 pmENE 4.1 6.0----29.94-0.02 76.3- 64.8---
2024-07-22 07:54 pmENE 1.9 4.1----29.93- 76.5- 64.9---
2024-07-22 07:48 pm E 4.1 5.1----29.93-------
2024-07-22 07:42 pmESE 5.1 5.1----29.93-------
2024-07-22 07:36 pm E 5.1 6.0----29.93-------
2024-07-22 07:30 pmENE 1.9 4.1----29.94-------
2024-07-22 07:24 pm NE 1.9 6.0----29.94-------
2024-07-22 07:18 pmENE 5.1 6.0----29.94- 76.8- 64.8---
2024-07-22 07:12 pmENE 4.1 5.1----29.94- 76.8- 63.9---
2024-07-22 07:06 pmENE 4.1 6.0----29.94- 76.5- 63.5---
2024-07-22 07:00 pmENE 4.1 5.1----29.94-0.02 76.5- 64.0---
2024-07-22 06:54 pmENE 1.9 6.0----29.94- 76.5- 64.9---
2024-07-22 06:48 pm E 6.0 6.0----29.94- 77.0- 61.7---
2024-07-22 06:42 pm E 5.1 7.0----29.94- 76.8- 64.2---
2024-07-22 06:36 pm E 7.0 8.9----29.94- 76.6- 63.9---
2024-07-22 06:30 pm E 7.0 9.9----29.94- 76.6- 64.0---
2024-07-22 06:24 pm E 8.9 11.1----29.94- 76.8- 64.4---
2024-07-22 06:18 pmESE 7.0 8.9----29.94- 76.8- 63.7---
2024-07-22 06:12 pmESE 7.0 8.9----29.94- 76.8- 64.4---
2024-07-22 06:06 pm E 8.0 8.0----29.94- 76.5- 64.6---
2024-07-22 06:00 pm E 6.0 8.0----29.95-0.03 76.6- 65.3---
2024-07-22 05:54 pm E 6.0 8.0----29.95- 76.5- 65.3---
2024-07-22 05:48 pm E 6.0 8.0----29.95- 76.5- 65.7---
2024-07-22 05:42 pm E 5.1 6.0----29.95- 76.3- 64.9---
2024-07-22 05:36 pmESE 1.9 2.9----29.95- 73.4- 67.6---
2024-07-22 05:30 pm-------29.96-------
2024-07-22 05:24 pm-------29.96-------
2024-07-22 05:18 pmESE 2.9 4.1----29.96- 75.9- 65.5---
2024-07-22 05:12 pm SE 4.1 5.1----29.96- 76.1- 65.3---
2024-07-22 05:06 pm SE 4.1 7.0----29.96- 76.6- 64.9---
2024-07-22 05:00 pm E 4.1 7.0----29.96-0.02------
2024-07-22 04:54 pm E 6.0 7.0----29.96-------
2024-07-22 04:48 pm E 6.0 7.0----29.96- 76.6- 66.2---
2024-07-22 04:42 pmENE 2.9 5.1----29.96- 76.3- 67.8---
2024-07-22 04:36 pm NE 2.9 5.1----29.96- 76.1- 68.2---
2024-07-22 04:30 pmENE 2.9 5.1----29.96- 75.9- 68.5---
2024-07-22 04:24 pmENE 1.9 5.1----29.96- 76.1- 68.2---
2024-07-22 04:18 pmENE 1.9 5.1----29.96- 76.1-----
2024-07-22 04:12 pm E 4.1 6.0----29.97- 76.1-----
2024-07-22 04:06 pm E 4.1 7.0----29.97- 76.3-----
2024-07-22 04:00 pm E 6.0 7.0----29.96-0.02 76.3- 67.6---
2024-07-22 03:54 pm NE 2.9 5.1----29.96- 75.7- 67.6---
2024-07-22 03:48 pmENE 4.1 5.1----29.97-------
2024-07-22 03:42 pmENE 4.1 5.1----29.97-------
2024-07-22 03:36 pmENE 5.1 6.0----29.97-------
2024-07-22 03:30 pmENE 2.9 5.1----29.97- 76.1- 68.2---
2024-07-22 03:24 pmENE 1.9 4.1----29.97- 76.1- 68.2---
2024-07-22 03:18 pmENE 2.9 5.1----29.97- 76.1- 67.3---
2024-07-22 03:12 pmENE 1.9 4.1----29.97- 76.1- 67.5---
2024-07-22 03:06 pm NE 1.9 4.1----29.97- 76.1- 67.1---
2024-07-22 03:00 pmENE 1.9 4.1----29.97-0.03 76.5- 67.6---
2024-07-22 02:54 pmENE 2.9 4.1----29.97- 76.3- 67.3---
2024-07-22 02:48 pmENE 1.9 4.1----29.97- 76.3- 67.5---
2024-07-22 02:42 pmENE 4.1 5.1----29.97- 75.9- 67.1---
2024-07-22 02:36 pmENE 4.1 5.1----29.97- 75.9- 66.9---
2024-07-22 02:30 pmENE 4.1 5.1----29.97- 76.1- 66.9---
2024-07-22 02:24 pmENE 2.9 4.1----29.97- 76.3- 67.1---
2024-07-22 02:18 pmENE 2.9 4.1----29.97- 76.1- 65.8---
2024-07-22 02:12 pm E 1.9 2.9----29.98- 76.3- 65.8---
2024-07-22 02:06 pmNNE 1.0 4.1----29.98- 76.3- 66.0---
2024-07-22 02:00 pmENE 1.0 1.9----29.98-0.03 76.3- 65.3---
2024-07-22 01:54 pmENE 1.9 2.9----29.98- 76.5- 66.2---
2024-07-22 01:48 pmENE 1.9 1.9----29.98- 76.5- 64.4---
2024-07-22 01:42 pmNNE 1.0 1.9----29.98- 76.8- 66.2---
2024-07-22 01:36 pm- 0.0 1.9----29.98- 76.6- 65.5---
2024-07-22 01:30 pmNNE 1.0 1.9----29.98- 76.8- 65.7---
2024-07-22 01:24 pm N 1.9 2.9----29.98- 76.6- 66.4---
2024-07-22 01:18 pmNNE 1.0 1.9----29.98- 76.3- 65.7---
2024-07-22 01:12 pmNNE 1.0 1.9----29.98- 76.8- 65.8---
2024-07-22 01:06 pmNNW 1.0 1.9----29.98- 76.8- 65.8---
2024-07-22 01:00 pmWNW 1.0 1.9----29.98-0.01 76.6- 65.1---
2024-07-22 12:54 pm- 0.0 1.9----29.98- 76.5- 65.7---
2024-07-22 12:48 pm- 0.0 1.9----29.98- 77.2- 65.8---
2024-07-22 12:42 pm- 0.0 2.9----29.98- 78.6- 65.3---
2024-07-22 12:36 pmWSW 1.9 2.9----29.99- 78.3- 65.7---
2024-07-22 12:30 pm- 0.0 4.1----29.99- 76.6- 64.8---
2024-07-22 12:24 pmWSW 2.9 5.1----29.99- 76.3- 64.0---
2024-07-22 12:18 pmSSW 1.9 4.1----29.99- 76.8- 66.0---
2024-07-22 12:12 pmSSW 1.9 4.1----30.00- 76.6- 65.1---
2024-07-22 12:06 pm- 0.0 2.9----30.00- 76.1- 63.5---
2024-07-22 12:00 pm SW 1.9 5.1----30.00+0.00 75.9- 63.3---
2024-07-22 11:54 am S 4.1 6.0----30.00- 76.1- 64.6---
2024-07-22 11:48 am S 5.1 6.0----30.00- 75.9- 64.2---
2024-07-22 11:42 am S 6.0 7.0----30.00- 75.7- 65.1---
2024-07-22 11:36 am S 5.1 6.0----30.00- 75.4- 64.0---
2024-07-22 11:30 am S 6.0 8.9----30.00- 74.8- 63.9---
2024-07-22 11:24 am S 7.0 8.9----30.01- 74.8- 64.8---
2024-07-22 11:18 am S 6.0 8.9----30.01- 75.0- 64.9---
2024-07-22 11:12 amSSE 2.9 6.0----30.01- 75.2- 67.5---
2024-07-22 11:06 amSSE 5.1 7.0----30.01- 75.2- 68.0---
2024-07-22 11:00 am E 6.0 8.0----30.01+0.01 75.2- 68.5---
2024-07-22 10:54 am E 6.0 7.0----30.00- 75.2- 68.2---
2024-07-22 10:48 amENE 4.1 6.0----30.00- 75.2- 68.7---
2024-07-22 10:42 amENE 4.1 6.0----30.00- 75.2- 68.4---
2024-07-22 10:36 am E 4.1 7.0----30.01- 75.2- 68.0---
2024-07-22 10:30 am E 5.1 7.0----30.01- 75.0- 68.2---
2024-07-22 10:24 am E 5.1 6.0----30.00- 75.2- 69.3---
2024-07-22 10:18 amENE 4.1 5.1----30.00- 75.2- 69.1---
2024-07-22 10:12 amENE 4.1 6.0----30.00- 75.2- 69.1---
2024-07-22 10:06 amENE 5.1 6.0----30.00- 75.2- 69.3---
2024-07-22 10:00 amENE 5.1 6.0----30.00+0.00 75.0- 69.3---
2024-07-22 09:54 amENE 2.9 5.1----30.00- 75.0- 69.3---
2024-07-22 09:48 am E 5.1 7.0----30.00- 74.8- 68.9---
2024-07-22 09:42 am E 6.0 7.0----30.00- 74.7- 68.9---
2024-07-22 09:36 am E 6.0 7.0----30.00- 74.7- 68.9---
2024-07-22 09:30 amENE 2.9 4.1----30.00- 74.7- 69.1---
2024-07-22 09:24 amENE 2.9 5.1----30.00- 74.7- 69.3---
2024-07-22 09:18 amENE 4.1 6.0----30.00- 74.5- 68.7---
2024-07-22 09:12 am E 5.1 7.0----30.00- 74.7- 68.9---
2024-07-22 09:06 amENE 5.1 6.0----30.00- 74.7- 69.3---
2024-07-22 09:00 amENE 5.1 6.0----29.99+0.01 74.7- 69.3---
2024-07-22 08:54 amENE 4.1 6.0----29.99- 74.5- 69.3---
2024-07-22 08:48 am E 5.1 6.0----30.00- 74.5- 68.9---
2024-07-22 08:42 am E 4.1 6.0----30.00- 74.7- 69.1---
2024-07-22 08:36 am E 5.1 7.0----30.00- 74.7- 69.3---
2024-07-22 08:30 am E 5.1 6.0----30.00- 74.8- 69.8---
2024-07-22 08:24 amENE 5.1 7.0----29.99- 74.8- 69.4---
2024-07-22 08:18 amENE 5.1 7.0----29.99- 74.8- 69.4---
2024-07-22 08:12 am E 5.1 6.0----29.99- 75.0- 69.3---
2024-07-22 08:06 amENE 1.0 4.1----29.99- 75.0- 69.6---
2024-07-22 08:00 am- 0.0 5.1----29.99+0.00 74.5- 68.7---
2024-07-22 07:54 amENE 5.1 7.0----29.99- 74.3- 69.8---
2024-07-22 07:48 amENE 2.9 5.1----29.99- 74.1- 69.8---
2024-07-22 07:42 amNNE 1.9 5.1----29.99- 73.0- 68.9---
2024-07-22 07:36 amENE 1.9 5.1----29.99- 73.2- 69.1---
2024-07-22 07:30 am NE 1.9 5.1----29.99- 73.0- 68.9---
2024-07-22 07:24 amENE 1.9 6.0----29.99- 73.0- 69.1---
2024-07-22 07:18 am NE 1.9 6.0----29.99- 73.9- 69.6---
2024-07-22 07:12 am NE 2.9 5.1----29.99- 74.1- 69.8---
2024-07-22 07:06 amENE 2.9 5.1----29.99- 73.4- 69.4---
2024-07-22 07:00 amENE 2.9 6.0----29.99-0.01 73.4- 69.4---
2024-07-22 06:54 amENE 4.1 7.0----29.99- 73.9- 69.8---
2024-07-22 06:48 amENE 4.1 7.0----29.99- 73.6- 69.4---
2024-07-22 06:42 am NE 5.1 7.0----29.99- 73.2- 69.3---
2024-07-22 06:36 am NE 4.1 6.0----29.99- 73.2- 69.3---
2024-07-22 06:30 amENE 2.9 7.0----29.99- 73.4- 69.6---
2024-07-22 06:24 am NE 2.9 6.0----29.99- 73.0- 69.4---
2024-07-22 06:18 am NE 2.9 5.1----29.99- 73.0- 69.3---
2024-07-22 06:12 am NE 2.9 6.0----29.99- 73.0- 69.4---
2024-07-22 06:06 amENE 5.1 6.0----29.99- 73.2- 69.4---
2024-07-22 06:00 am E 5.1 7.0----29.98-0.03 73.4- 69.8---
2024-07-22 05:54 amENE 4.1 5.1----29.98- 71.8- 68.7---
2024-07-22 05:48 amENE 2.9 5.1----29.98- 70.0- 66.0---
2024-07-22 05:42 amENE 2.9 5.1----29.98- 69.4- 65.3---
2024-07-22 05:36 amENE 1.9 1.9----29.99- 69.1- 63.5---
2024-07-22 05:30 amNNW 1.0 1.9----29.99- 68.5- 63.3---
2024-07-22 05:24 amNNW 1.9 2.9----29.99- 68.7- 63.3---
2024-07-22 05:18 amNNW 2.9 2.9----29.99- 68.9- 63.1---
2024-07-22 05:12 amNNW 2.9 2.9----29.99- 69.1- 63.3---
2024-07-22 05:06 amNNW 1.9 2.9----29.99- 69.1- 63.1---
2024-07-22 05:00 amNNW 1.9 1.9----29.99-0.03 69.1- 62.8---
2024-07-22 04:54 amNNW 1.9 1.9----29.99- 68.5- 62.8---
2024-07-22 04:48 amNNW 1.0 1.9----29.99- 68.9- 62.2---
2024-07-22 04:42 amNNW 1.0 2.9----29.99- 69.3- 62.2---
2024-07-22 04:36 amNNW 1.9 2.9----29.99- 68.9- 62.8---
2024-07-22 04:30 amNNW 1.9 2.9----29.99- 69.1- 62.6---
2024-07-22 04:24 am N 1.9 2.9----29.99- 69.3- 62.1---
2024-07-22 04:18 amNNW 1.0 1.9----29.99- 69.8- 61.5---
2024-07-22 04:12 amNNW 1.9 2.9----30.00- 69.8- 59.9---
2024-07-22 04:06 am N 2.9 2.9----30.00- 69.6- 60.1---
2024-07-22 04:00 amNNW 2.9 2.9----30.00-0.03 69.8- 59.7---
2024-07-22 03:54 am- 0.0 1.0----30.01- 70.0- 62.1---
2024-07-22 03:48 am- 0.0 1.0----30.00- 70.2- 61.2---
2024-07-22 03:42 am- 0.0 0.0----30.00- 69.4- 60.4---
2024-07-22 03:36 am- 0.0 1.0----30.00- 70.3- 61.7---
2024-07-22 03:30 am- 0.0 1.0----30.01- 70.3- 60.3---
2024-07-22 03:24 am- 0.0 1.0----30.01- 70.2- 60.1---
2024-07-22 03:18 am SW 1.0 1.0----30.01- 70.5- 61.3---
2024-07-22 03:12 am W 1.0 1.9----30.01- 70.9- 61.2---
2024-07-22 03:06 am W 1.0 1.9----30.01- 70.2- 59.0---
2024-07-22 03:00 am W 1.9 1.9----30.01-0.02 70.3- 60.6---
2024-07-22 02:54 am W 1.9 1.9----30.02- 70.5- 61.7---
2024-07-22 02:48 amWSW 1.9 1.9----30.02- 70.9- 60.6---
2024-07-22 02:42 amWSW 1.0 2.9----30.02- 70.9- 60.1---
2024-07-22 02:36 amWSW 1.9 2.9----30.02- 71.1- 60.4---
2024-07-22 02:30 amSSW 1.9 4.1----30.02- 70.5- 61.2---
2024-07-22 02:24 amSSW 1.9 2.9----30.02- 70.7- 60.8---
2024-07-22 02:18 am SW 2.9 4.1----30.02- 71.2- 59.9---
2024-07-22 02:12 amWNW 1.9 1.9----30.02- 70.9- 61.2---
2024-07-22 02:06 amWNW 1.9 1.9----30.02- 71.1- 61.5---
2024-07-22 02:00 am NW 1.9 1.9----30.02-0.01 70.7- 59.4---
2024-07-22 01:54 amWNW 1.0 1.9----30.02- 71.2- 58.6---
2024-07-22 01:48 am- 0.0 1.0----30.02- 72.3- 59.2---
2024-07-22 01:42 am- 0.0 1.0----30.03- 72.5- 58.8---
2024-07-22 01:36 am- 0.0 1.0----30.03- 71.8- 59.5---
2024-07-22 01:30 am- 0.0 1.0----30.03- 72.9- 58.5---
2024-07-22 01:24 am- 0.0 2.9----30.03- 73.0- 59.4---
2024-07-22 01:18 amSSE 1.9 2.9----30.03- 74.3- 57.6---
2024-07-22 01:12 am SE 2.9 4.1----30.03- 74.3- 58.6---
2024-07-22 01:06 amSSE 2.9 5.1----30.03- 74.7- 58.8---
2024-07-22 01:00 amSSE 4.1 5.1----30.03+0.00 74.7- 58.1---
2024-07-22 12:54 amSSE 5.1 7.0----30.03- 74.8- 58.1---
2024-07-22 12:48 amSSE 5.1 8.0----30.04- 75.2- 57.6---
2024-07-22 12:42 amSSE 5.1 6.0----30.04- 75.4- 57.9---
2024-07-22 12:36 amSSE 5.1 6.0----30.03- 75.0- 57.9---
2024-07-22 12:30 am--------- 73.4- 61.0---
2024-07-22 12:24 am--------- 72.1- 61.5---
2024-07-22 12:18 am- 0.0 2.9----30.04- 72.3- 62.4---
2024-07-22 12:12 amSSE 1.9 2.9----30.04- 72.7- 63.1---
2024-07-22 12:06 am- 0.0 2.9----30.03- 72.5- 62.4---
2024-07-22 12:00 amESE 2.9 4.1----30.03+0.01 74.1- 61.7---
2024-07-21 11:54 pmESE 2.9 4.1----30.03- 75.7- 62.1---
2024-07-21 11:48 pmESE 4.1 4.1----30.03-------
2024-07-21 11:42 pmESE 2.9 4.1----30.03-------
2024-07-21 11:36 pmESE 2.9 4.1----30.03-------
2024-07-21 11:30 pm E 2.9 4.1----30.03- 72.1- 61.0---
2024-07-21 11:24 pm SE 1.0 1.9----30.03- 72.7- 62.1---
2024-07-21 11:18 pmESE 1.0 2.9----30.03- 73.4- 61.2---
2024-07-21 11:12 pm E 2.9 4.1----30.03- 73.9- 59.4---
2024-07-21 11:06 pm E 1.9 2.9----30.03- 73.4- 59.2---
2024-07-21 11:00 pmESE 1.9 2.9----30.03+0.02 73.4- 59.2---
2024-07-21 10:54 pmESE 2.9 2.9----30.04- 73.6- 59.5---
2024-07-21 10:48 pm SE 1.9 2.9----30.04- 73.6- 59.9---
2024-07-21 10:42 pmSSE 1.9 2.9----30.04- 75.4- 60.6---
2024-07-21 10:36 pmESE 1.9 4.1----30.04- 75.6- 59.7---
2024-07-21 10:30 pmESE 1.9 4.1------ 75.7- 59.7---
2024-07-21 10:24 pmESE 2.9 4.1------ 76.6- 59.2---
2024-07-21 10:18 pmESE 2.9 5.1----30.04- 77.5- 57.4---
2024-07-21 10:12 pmESE 4.1 6.0----30.03- 77.5- 58.3---
2024-07-21 10:06 pmESE 5.1 6.0----30.03- 77.5- 57.6---
2024-07-21 10:00 pmESE 5.1 6.0----30.03+0.01 77.7- 57.4---
2024-07-21 09:54 pmESE 5.1 6.0----30.03- 77.7- 58.3---
2024-07-21 09:48 pmESE 5.1 5.1----30.03- 77.5- 57.4---
2024-07-21 09:42 pmESE 4.1 5.1----30.02- 77.7- 57.2---
2024-07-21 09:36 pmESE 5.1 6.0----30.02- 77.7- 58.6---
2024-07-21 09:30 pmESE 5.1 6.0----30.02- 77.7- 59.0---
2024-07-21 09:24 pmESE 5.1 5.1----30.02- 77.7- 58.5---
2024-07-21 09:18 pmESE 5.1 6.0----30.02-------
2024-07-21 09:12 pm E 5.1 5.1----30.02-------
2024-07-21 09:06 pm E 5.1 5.1----30.02-------
2024-07-21 09:00 pm E 5.1 6.0----30.02+0.00------
2024-07-21 08:54 pm E 5.1 6.0----30.02-------